Track IGS OPTICAL 5 now! 10-day predictions IGS OPTICAL 5 is classified as:
1 40538U 15015A 24262.89713142 0.00000000 00000-0 00000-0 0 06 2 40538 97.3416 332.3987 0003939 113.3537 246.6277 15.27649255 04